Flag for U.S.A. Weather past 2 weeks in Bowling Green, Kentucky, U.S.A.

Now
71 °F

Fog.


Feels Like: 63 °F
Forecast: 71 / 90 °F
Wind: No wind

Location: Glasgow Municipal Airport

Current Time: Aug 29, 2014 at 5:03:47 AM

Latest Report: Aug 29, 2014 at 4:35 AM


Visibility: 4 mi

Pressure: 30.01 "Hg

Humidity: 100%

Dew point: 71 °F

Location of Bowling GreenLocation

Historic Weather in Bowling Green — Graph

°F

Bowling Green temperature yesterday

Maximum temperature yesterday: 90 °F (at 2:15 PM)
Minimum temperature yesterday: 69 °F (at 6:15 AM)
Average temperature yesterday: 77 °F

Past Weeks' High & Low Weather Summary

 TemperatureHumidityPressure
High91 °F (Aug 23, 4:35 PM)100% (Aug 14, 3:15 AM)30.16 "Hg (Aug 14, 3:15 AM)
Low56 °F (Aug 14, 5:15 AM)44% (Aug 14, 3:15 PM)29.83 "Hg (Aug 18, 6:15 PM)
Average76 °F83%30.01 "Hg
* Reported Aug 14 3:15 AM — Aug 29 3:55 AM, Bowling Green, Weather by CustomWeather, © 2014

Note: Actual official high and low records may vary slightly from our data, if they occured in-between our weather recording intervals... More about our weather records

Advertising

Bowling Green weather history for previous 24 hours

 ConditionsComfort  
Time TempWeatherWind HumidityBarometerVisibility
3:55 AM
Aug 29
71 °FFog.No wind100%30.01 "Hg4 mi
3:15 AM72 °FFog.No wind100%30.01 "Hg4 mi
2:55 AM72 °FFog.No wind100%30.01 "Hg4 mi
2:35 AM72 °FFog.No wind100%30.01 "Hg3 mi
2:15 AM72 °FFog.No wind100%30.01 "Hg4 mi
1:55 AM72 °FFog.No wind100%30.02 "Hg4 mi
1:35 AM72 °FFog.No wind100%30.02 "Hg4 mi
1:15 AM72 °FFog.No wind100%30.03 "Hg5 mi
12:55 AM72 °FFog.No wind100%30.03 "Hg4 mi
12:35 AM72 °FFog.No wind100%30.03 "Hg4 mi
12:15 AM72 °FFog.No wind100%30.03 "Hg5 mi
11:55 PM
Aug 28
72 °FFog.No wind100%30.03 "Hg5 mi
11:15 PM72 °FFog.No wind100%30.02 "Hg4 mi
10:55 PM72 °FFog.No wind100%30.03 "Hg5 mi
10:35 PM72 °FFog.3 mph100%30.03 "Hg4 mi
10:15 PM72 °FFog.No wind100%30.03 "Hg4 mi
9:55 PM73 °FFog.No wind100%30.03 "Hg5 mi
9:15 PM73 °FFog.No wind100%30.03 "Hg5 mi
8:55 PM73 °FClear.No wind100%30.03 "Hg7 mi
8:15 PM73 °FSunny.No wind98%30.02 "Hg10 mi
7:55 PM74 °FSunny.No wind99%30.01 "Hg10 mi
7:35 PM74 °FPartly sunny.No wind94%30.02 "Hg10 mi
7:15 PM74 °FPartly sunny.5 mph94%30.01 "Hg7 mi
6:55 PM74 °FSunny.No wind91%30.00 "Hg10 mi
6:35 PM74 °FLight rain. Scattered clouds.No wind82%30.00 "Hg10 mi
6:15 PM74 °FScattered clouds.5 mph81%30.01 "Hg10 mi
5:55 PM75 °FThunderstorms. Cloudy.6 mph87%30.01 "Hg7 mi
5:35 PM74 °FThunderstorms. Cloudy.13 mph87%30.02 "Hg7 mi
5:15 PM76 °FThundershowers. Cloudy.7 mph77%30.00 "Hg5 mi
4:55 PM80 °FLight rain. Cloudy.10 mph70%29.99 "Hg7 mi
4:35 PM86 °FMostly cloudy.13 mph64%29.98 "Hg10 mi
4:15 PM89 °FPartly sunny.No wind57%29.98 "Hg10 mi
3:55 PM90 °FScattered clouds.9 mph54%29.98 "Hg10 mi
3:35 PM88 °FScattered clouds.5 mph59%29.99 "Hg10 mi
3:15 PM90 °FScattered clouds.3 mph55%30.00 "Hg10 mi
2:55 PM90 °FScattered clouds.3 mph55%30.00 "Hg10 mi
2:35 PM89 °FScattered clouds.No wind57%30.01 "Hg10 mi
2:15 PM90 °FSunny.7 mph55%30.01 "Hg10 mi
1:55 PM89 °FScattered clouds.No wind56%30.01 "Hg10 mi
1:35 PM88 °FScattered clouds.No wind60%30.02 "Hg10 mi
1:15 PM87 °FScattered clouds.No wind61%30.03 "Hg10 mi
12:55 PM86 °FLight rain. Cloudy.No wind66%30.04 "Hg7 mi
12:35 PM85 °FMostly cloudy.No wind66%30.04 "Hg10 mi
12:15 PM86 °FMostly cloudy.No wind66%30.05 "Hg10 mi
11:55 AM85 °FOvercast.No wind65%30.05 "Hg10 mi
11:15 AM86 °FScattered clouds.No wind64%30.06 "Hg10 mi
10:55 AM85 °FSunny.No wind64%30.06 "Hg10 mi
10:15 AM83 °FSunny.No wind66%30.07 "Hg10 mi
9:55 AM82 °FSunny.No wind68%30.07 "Hg10 mi
9:35 AM82 °FSunny.No wind68%30.07 "Hg10 mi
9:15 AM80 °FSunny.No wind70%30.07 "Hg10 mi
8:55 AM79 °FSunny.No wind73%30.07 "Hg7 mi
8:15 AM75 °FSunny.No wind85%30.07 "Hg5 mi
7:55 AM73 °FFog.No wind94%30.07 "Hg4 mi
7:35 AM71 °FFog.No wind100%30.07 "Hg3 mi
7:15 AM70 °FFog.No wind100%30.07 "Hg2 mi
6:55 AM69 °FFog.No wind100%30.06 "Hg2 mi
6:35 AM69 °FFog.3 mph100%30.06 "Hg1 mi
6:15 AM69 °FFog.No wind100%30.05 "Hg2 mi
5:55 AM69 °FFog.No wind100%30.05 "Hg2 mi
5:35 AM69 °FFog.No wind100%30.05 "Hg2 mi
5:15 AM70 °FFog.No wind100%30.04 "Hg2 mi
Weather by CustomWeather, © 2014

See weather overviewHow to use our weather pages